Location: *
(43.9905°S, 176.4941°W)
Time: 05:29:27
(UTC+00:00)

Cosmos 2208 Rocket - Pass Details

Date: 08 December 2019
Orbit: 754 x 806 km, 74.0° (Epoch: 28 January)

Event Time Altitude Azimuth Distance (km) Brightness Sun altitude
Exits shadow 11:03:35 34° 310° (NW) 1,290 4.9 -22.8°
Maximum altitude 11:05:46 59° 246° (WSW) 923 4.5 -22.9°
Drops below altitude 10° 11:11:06 10° 166° (SSE) 2,368 7.5 -23.0°
Sets 11:13:32 0° 162° (SSE) 3,294 8.4 -23.1°
